Location: Borgo
(42.3939°N, 9.2791°E)
Time: 21:29:20
(UTC+00:00)

Cosmos 44 - Pass Details

Date: 24 January 2021
Orbit: 572 x 790 km, 65.1° (Epoch: 03 March)

Event Time Altitude Azimuth Distance (km) Brightness Sun altitude
Rises 18:19:44 0° 233° (SW) 2,965 7.6 -20.8°
Reaches altitude 10° 18:22:05 10° 242° (WSW) 2,094 6.7 -21.2°
Maximum altitude 18:26:35 39° 311° (NW) 1,040 4.5 -22.0°
Enters shadow 18:29:50 19° 12° (NNE) 1,710 5.1 -22.6°
